Orbital Elements at Epoch 2459200.5 (2020-Dec-17.0) TDB
Reference: JPL 15 (heliocentric ecliptic J2000)
Element | Value | Uncertainty (1-sigma) | Units |
e | .186252106188106 | 4.1705e-08 | |
a | 2.475752706162912 | 1.1474e-08 | au |
q | 2.014638550239166 | 1.0245e-07 | au |
i | 3.140456746726584 | 4.1362e-06 | deg |
node | 146.4466779593495 | 7.9279e-05 | deg |
peri | 133.9089962021474 | 7.9898e-05 | deg |
M | 327.559550394145 | 1.2452e-05 | deg |
tp | 2459328.716431177485 (2021-Apr-24.21643118) | 4.9607e-05 | TDB |
period | 1422.850662820769 3.90 | 9.891e-06 2.708e-08 | d yr |
n | .2530132004762243 | 1.7588e-09 | deg/d |
Q | 2.936866862086657 | 1.361e-08 | au |
|
| | Orbit Determination Parameters
Additional Information
|